Regional Weather Roundup
Issued by NWS

Home | Current Version | Previous Version | Graphics & Text | Print | Product List | Glossary On
Versions: 1 2 3 4 5 6 7 8 9 10 11 12 13 14 15 16 17 18 19 20 21 22 23 24 25 26 27 28 29 30 31 32 33 34 35 36 37 38 39 40 41 42 43 44 45 46 47 48 49 50
000
ASUS43 KOAX 230502
RWRNE

WEATHER ROUNDUP FOR NEBRASKA
NATIONAL WEATHER SERVICE OMAHA NE
1100 PM CST SUN JAN 22 2017

NOTES: SATELLITE DATA IS BEING USED TO AUGMENT CLOUD COVER ABOVE
       12000 FEET.
       "FAIR" INDICATES FEW OR NO CLOUDS BELOW 12,000 FEET WITH NO
       SIGNIFICANT WEATHER AND/OR OBSTRUCTIONS TO VISIBILITY.

  * THESE STATIONS DO NOT REPORT WEATHER SUCH AS RAIN...SNOW OR FOG.

NEZ001>004-019>022-054>056-230600-
NEBRASKA PANHANDLE

CITY           SKY/WX    TMP DP  RH WIND       PRES   REMARKS
SCOTTSBLUFF    CLEAR     26  19  74 E5        29.82F WCI  20
ALLIANCE       CLEAR     20  15  81 S5        29.81F WCI  13
CHADRON        CLOUDY    22  19  89 W5        29.83S WCI  16
KIMBALL        CLOUDY    26  21  83 S5        29.83F WCI  20
SIDNEY         CLEAR     21  17  84 SW6       29.85F WCI  13
$$

NEZ057>060-069>072-079>082-230600-
SOUTHWEST NEBRASKA

CITY           SKY/WX    TMP DP  RH WIND       PRES   REMARKS
NORTH PLATTE   CLEAR     23  19  85 CALM      29.89F
IMPERIAL       CLEAR     28  23  81 SW3       29.89F
LEXINGTON      CLEAR     27  24  88 W7        29.90S WCI  20
MCCOOK         CLEAR     26  24  92 SW7       29.90F WCI  18
OGALLALA       CLEAR     26  23  90 CALM      29.86F
$$

NEZ005>010-023>029-035>040-094-230600-
NORTH CENTRAL NEBRASKA

CITY           SKY/WX    TMP DP  RH WIND       PRES   REMARKS
VALENTINE      CLEAR     21  19  92 SW6       29.87S WCI  13
AINSWORTH      CLEAR     24  22  90 CALM      29.87S
BROKEN BOW     CLEAR     29  26  89 CALM      29.88S
O`NEILL        PTCLDY    24  24  97 NW6       29.90R WCI  17
ORD            CLEAR     28  23  81 CALM      29.89S
THEDFORD       CLEAR     27  24  88 CALM      29.88F
$$

NEZ041-046>049-061>064-073>077-083>087-230600-
SOUTH CENTRAL NEBRASKA

CITY           SKY/WX    TMP DP  RH WIND       PRES   REMARKS
GRAND ISLAND   CLEAR     28  26  92 NW5       29.90S WCI  23
AURORA         CLEAR     30  28  92 NW5       29.90R WCI  25
HASTINGS       CLEAR     31  28  89 CALM      29.91R
HEBRON         CLEAR     27  27 100 CALM      29.92R
KEARNEY *      CLEAR     34  25  69 N6        29.90S WCI  29
YORK           CLEAR     28  28 100 NW9       29.90R WCI  20
$$

NEZ011>018-030>034-042>045-230600-
NORTHEAST NEBRASKA

CITY           SKY/WX    TMP DP  RH WIND       PRES   REMARKS
NORFOLK        CLEAR     27  23  85 NW8       29.90R WCI  19
ALBION         CLEAR     27  21  78 N5        29.91R WCI  22
BLAIR          CLEAR     31  29  94 N9        29.89R FOG     WCI  23
FREMONT        CLEAR     29  29 100 CALM      29.90R
TEKAMAH        CLOUDY    31  28  89 N12       29.91R WCI  22
WAYNE          CLOUDY    31  28  89 NW13G21   29.90R WCI  21
$$

NEZ050>053-065>068-078-088>093-230600-
SOUTHEAST NEBRASKA

CITY           SKY/WX    TMP DP  RH WIND       PRES   REMARKS
LINCOLN        CLEAR     25  24  96 N6        29.91S WCI  18
OMAHA EPPLEY   CLEAR     27  23  85 NW9       29.90R WCI  18
BEATRICE       FOG       27  27  99 W3        29.90S VSB 3/4
FALLS CITY     CLEAR     29  28  96 NW6       29.89R WCI  23
NEBRASKA CITY  CLEAR     32  31  97 NW6       29.88S WCI  26
PLATTSMOUTH    CLEAR     30  28  90 NW7       29.89R FOG     WCI  23
$$

NEZ044-045-051>053-067-230600-
OMAHA AREA

CITY           SKY/WX    TMP DP  RH WIND       PRES   REMARKS
OMAHA EPPLEY   CLEAR     27  23  85 NW9       29.90R WCI  18
BLAIR          CLEAR     31  29  94 N9        29.89R FOG     WCI  23
FREMONT        CLEAR     29  29 100 CALM      29.90R
MILLARD        CLEAR     29  28  96 CALM      29.90R FOG
OFFUTT AFB     CLEAR     26  26 100 NW5       29.89R WCI  21
PLATTSMOUTH    CLEAR     30  28  90 NW7       29.89R FOG     WCI  23
WAHOO          FAIR      32  29  90 NW6       29.90R WCI  27
$$



USA.gov is the U.S. government's official web portal to all federal, state and local government web resources and services.